This demonstration page uses our WeatherBlox Daily Observations layout. Learn more.

41.55636, -103.73856

Hourly Observations for May 29, 2018

Temp ( °F °C ) Dew Point ( °F °C ) Humidity (%) Winds ( mph kmh ) Pressure ( in mb ) Visibility ( mi km ) Precip ( " mm )
12:58 am 00:58 Clear 49 9.6 47 8.5 93 93 SW 7 11 29.9 1013 10 16.0934 N/A
1:58 am 01:58 Mostly Cloudy 49 9.5 47 8.6 94 94 SW 7 11 29.9 1013 10 16.0934 N/A
2:58 am 02:58 Clear 48 9 46 7.7 92 92 WSW 7 11 29.89 1012 10 16.0934 N/A
3:58 am 03:58 Mostly Clear 48 8.7 46 7.9 95 95 W 10 17 29.86 1011 10 16.0934 0.01 0.254
4:58 am 04:58 Clear 48 9.1 46 7.8 92 92 WNW 8 13 29.87 1011 10 16.0934 N/A
5:58 am 05:58 Sunny 48 8.8 45 7.4 91 91 W 9 15 29.86 1011 10 16.0934 0 0
6:58 am 06:58 Sunny 53 11.6 49 9.2 85 85 WNW 8 13 29.87 1011 10 16.0934 N/A
7:58 am 07:58 Sunny 55 12.8 50 9.8 82 82 S 8 13 29.86 1011 10 16.0934 N/A
8:58 am 08:58 Sunny 59 14.8 49 9.6 71 71 SSW 13 20 29.87 1011 10 16.0934 N/A
9:58 am 09:58 Mostly Sunny 62 16.5 49 9.2 62 62 W 10 17 29.84 1010 10 16.0934 N/A
10:58 am 10:58 Mostly Cloudy with Light Rain 58 14.6 49 9.7 73 73 NW 14 22 29.87 1011 10 16.0934 N/A
11:58 am 11:58 Mostly Cloudy 57 13.8 49 9.7 76 76 S 5 7 29.88 1012 10 16.0934 N/A
12:58 pm 12:58 Partly Cloudy 63 17.4 50 10.2 63 63 NNW 15 24 29.84 1010 10 16.0934 N/A
1:59 pm 13:59 Partly Cloudy 63 17.4 49 9.7 61 61 WNW 25 41 29.85 1011 10 16.0934 N/A
2:58 pm 14:58 Partly Cloudy 64 17.5 46 8 54 54 NW 24 39 29.84 1010 10 16.0934 N/A
3:58 pm 15:58 Mostly Cloudy 63 17.1 50 10.2 64 64 NNW 18 30 29.83 1010 10 16.0934 N/A
4:58 pm 16:58 Partly Cloudy 62 16.8 49 9.6 63 63 NW 17 28 29.83 1010 10 16.0934 N/A
5:58 pm 17:58 Mostly Sunny 61 16.2 45 7.1 55 55 NW 25 41 29.83 1010 10 16.0934 N/A
6:58 pm 18:58 Sunny 60 15.3 47 8.1 62 62 WNW 14 22 29.82 1010 10 16.0934 N/A
7:58 pm 19:58 Sunny 58 14.5 47 8.6 68 68 WNW 12 19 29.81 1009 10 16.0934 N/A
8:58 pm 20:58 Clear 54 12 46 8 77 77 WNW 9 15 29.83 1010 10 16.0934 N/A
9:58 pm 21:58 Mostly Clear 51 10.6 46 7.5 81 81 W 6 9 29.86 1011 10 16.0934 N/A
10:58 pm 22:58 Partly Cloudy 54 12.2 46 7.7 74 74 WNW 13 20 29.86 1011 10 16.0934 N/A
11:58 pm 23:58 Mostly Clear 54 12 46 8 77 77 WNW 14 22 29.84 1010 10 16.0934 N/A

Powered by AerisWeather